Home > Time Zones > World Clock > Weather > Cuba > Havana > Past weeks

Flag for Cuba Weather past 2 weeks in Havana, Cuba

Now
77 °F

Passing clouds.


Feels Like: 78 °F
Forecast: 80 / 90 °F
Wind: 5 mph from East

Location: Aeropuerto Jose Marti - Rancho-Boyeros - Habana

Current Time: Jul 2, 2015 at 4:36:49 AM

Latest Report: Jul 2, 2015 at 3:55 AM


Visibility: 5 mi

Pressure: 30.04 "Hg

Humidity: 83%

Dew point: 72 °F

Location of HavanaLocation

Historic Weather in Havana — Graph

°F

Havana temperature yesterday

Maximum temperature yesterday: 93 °F (at 3:55 PM)
Minimum temperature yesterday: 75 °F (at 4:55 AM)
Average temperature yesterday: 83 °F

Past Weeks' High & Low Weather Summary

 TemperatureHumidityPressure
High93 °F (Jun 25, 2:55 PM)94% (Jun 20, 7:55 AM)30.15 "Hg (Jun 20, 7:55 AM)
Low70 °F (Jun 30, 4:55 AM)41% (Jun 25, 2:55 PM)30.01 "Hg (Jun 17, 7:55 PM)
Average81 °F72%30.08 "Hg
* Reported Jun 17 4:55 AM — Jul 2 2:55 AM, Havana, Weather by CustomWeather, © 2015

Note: Actual official high and low records may vary slightly from our data, if they occured in-between our weather recording intervals... More about our weather records

Advertising

Havana weather history for previous 24 hours

 ConditionsComfort  
Time TempWeatherWind HumidityBarometerVisibility
2:55 AM
Thu, Jul 2
77 °FPassing clouds.6 mph83%30.07 "Hg5 mi
1:55 AM77 °FPassing clouds.7 mph83%30.07 "Hg5 mi
12:55 AM79 °FPassing clouds.5 mph79%30.09 "Hg5 mi
11:55 PM
Wed, Jul 1
81 °FPassing clouds.8 mph74%30.12 "Hg5 mi
10:55 PM81 °FClear.8 mph74%30.12 "Hg5 mi
9:55 PM82 °FPassing clouds.10 mph74%30.09 "Hg5 mi
8:55 PM82 °FPartly sunny.12 mph70%30.07 "Hg5 mi
7:55 PM84 °FPartly sunny.8 mph66%30.04 "Hg5 mi
6:55 PM86 °FScattered clouds.9 mph62%30.04 "Hg6 mi
5:55 PM88 °FPassing clouds.15 mph59%30.04 "HgN/A
4:55 PM91 °FPassing clouds.10 mph44%30.04 "HgN/A
3:55 PM93 °FPassing clouds.8 mph41%30.04 "HgN/A
2:55 PM91 °FPassing clouds.8 mph46%30.07 "HgN/A
1:55 PM90 °FPassing clouds.8 mph49%30.07 "HgN/A
12:55 PM90 °FPassing clouds.10 mph52%30.09 "HgN/A
11:55 AM88 °FPassing clouds.12 mph59%30.12 "HgN/A
10:55 AM86 °FPassing clouds.12 mph62%30.12 "HgN/A
9:55 AM84 °FPassing clouds.14 mph66%30.12 "HgN/A
8:55 AM81 °FPartly sunny.8 mph79%30.12 "Hg6 mi
7:55 AM77 °FPassing clouds.7 mph83%30.12 "Hg6 mi
6:55 AM75 °FPassing clouds.5 mph83%30.09 "Hg5 mi
5:55 AM75 °FPassing clouds.5 mph89%30.09 "Hg6 mi
4:55 AM75 °FPassing clouds.6 mph89%30.09 "Hg6 mi
Weather by CustomWeather, © 2015

See weather overviewHow to use our weather pages